This is the latest recevied weather packets stored in our database for station/object DB0OHL. If no packets are shown the sender has not sent any weather packets the latest 10 day(s).
| Time | Temp. | Humidity | Pressure | Rain* | Wind** | Luminosity | Snow |
|---|---|---|---|---|---|---|---|
| 1777671374 | 18.33° C | 46% | 1021.1 hPa | 0 mm | - | - | - |
| 1777670771 | 18.33° C | 45% | 1021.1 hPa | 0 mm | - | - | - |
| 1777670169 | 18.33° C | 45% | 1021.1 hPa | 0 mm | - | - | - |
| 1777669566 | 18.89° C | 44% | 1021.1 hPa | 0 mm | - | - | - |
| 1777668964 | 19.44° C | 43% | 1021.1 hPa | 0 mm | - | - | - |
| 1777668361 | 19.44° C | 42% | 1021.4 hPa | 0 mm | - | - | - |
| 1777667758 | 19.44° C | 42% | 1021.3 hPa | 0 mm | - | - | - |
| 1777667156 | 19.44° C | 41% | 1021.3 hPa | 0 mm | - | - | - |
| 1777666553 | 20° C | 41% | 1021.3 hPa | 0 mm | - | - | - |
| 1777665951 | 19.44° C | 41% | 1021.3 hPa | 0 mm | - | - | - |
| 1777665348 | 19.44° C | 41% | 1021.4 hPa | 0 mm | - | - | - |
| 1777664746 | 19.44° C | 41% | 1021.2 hPa | 0 mm | - | - | - |
| 1777664143 | 19.44° C | 41% | 1021.2 hPa | 0 mm | - | - | - |
| 1777663541 | 19.44° C | 41% | 1021.2 hPa | 0 mm | - | - | - |
| 1777662938 | 19.44° C | 41% | 1021.2 hPa | 0 mm | - | - | - |
| 1777662336 | 20° C | 41% | 1021.3 hPa | 0 mm | - | - | - |
| 1777661733 | 20° C | 40% | 1021.3 hPa | 0 mm | - | - | - |
| 1777661131 | 20° C | 40% | 1021.3 hPa | 0 mm | - | - | - |
| 1777660528 | 20.56° C | 40% | 1021.2 hPa | 0 mm | - | - | - |
| 1777659926 | 20.56° C | 39% | 1021.2 hPa | 0 mm | - | - | - |
| 1777659323 | 21.11° C | 39% | 1021.2 hPa | 0 mm | - | - | - |
| 1777658721 | 21.67° C | 39% | 1021.2 hPa | 0 mm | - | - | - |
| 1777658118 | 21.67° C | 37% | 1021.2 hPa | 0 mm | - | - | - |
| 1777657515 | 22.22° C | 37% | 1021.2 hPa | 0 mm | - | - | - |
| 1777656973 | 22.22° C | 36% | 1021 hPa | 0 mm | - | - | - |
* Rain latest hour (hover to see other rain measurements)
** Current wind speed in m/s (hover to see current wind gust speed)